STARLINK-1839 (47130 NORAD) Tracking and Keplerian Element Data

This shows tracking and keplerian element data for the satellite.

Feedback or suggestion? Click here.




ElementValue
Catalog47130
NameSTARLINK-1839
Epoch Orbit181
Epoch Day60.91667824
Epoch Year2021
RAAN263.7518
Inclination53.0542
Eccentricity0.0003383
Argument of Perigee91.9105
Mean Anonmoly278.995
Mean Motion15.06383979
Decay Rate0.00011775
L11 47130U 20088J 21060.91667824 .00011775 00000-0 80836-3 0 9994
L22 47130 53.0542 263.7518 0003383 91.9105 278.9950 15.06383979 1811

Live tracking and technical data element details for STARLINK-1839 (NORAD 47130). STARLINK-1839 can be tracked NOW for your location showing map with azimuth and elevation plus other details from your city location.

Track the satellite on the map from your city or location and see movement details for azimuth, elevation, latitude, longitude, range, height, and movement on the map or in text.







IsCatalogInMostPopularTable: catalog: 47130, numindb: 28
Update: records affected: 1



GetName: 47130 STARLINK-1839

Hit Count: updated at: Tue, 02 Mar 2021 13:18:35 GMT